| time (UTC) | temp F | wind direction | speed MPH | gust MPH | rain 1hr in | rain 24hr in | rain mn in | humidity % | barometer mb |
| 20260901143724 | 75 | 0.0 | 0.0 | 0.00 | 0.00 | 0.00 | 51 | 1011.8 | |
| 20260901142224 | 75 | 0.0 | 0.0 | 0.00 | 0.00 | 0.00 | 54 | 1010.3 | |
| 20260901140724 | 74 | 0.0 | 0.0 | 0.00 | 0.00 | 0.00 | 54 | 1010.6 | |
| 20260901135224 | 75 | 0.0 | 0.0 | 0.00 | 0.00 | 0.00 | 53 | 1012.2 | |
| 20260901133724 | 74 | 0.0 | 0.0 | 0.00 | 0.00 | 0.00 | 55 | 1012.2 | |
| 20260901132224 | 75 | 0.0 | 0.0 | 0.00 | 0.00 | 0.00 | 55 | 1010.9 | |
| 20260901130724 | 74 | 0.0 | 0.0 | 0.00 | 0.00 | 0.00 | 56 | 1012.9 | |
| 20260901125224 | 75 | 0.0 | 0.0 | 0.00 | 0.00 | 0.00 | 55 | 1012.2 | |
| 20260901123724 | 73 | 0.0 | 0.0 | 0.00 | 0.00 | 0.00 | 58 | 1013.0 | |
| 20260901122224 | 72 | 0.0 | 0.0 | 0.00 | 0.00 | 0.00 | 59 | 1012.0 | |
| 20260901120724 | 72 | 0.0 | 0.0 | 0.00 | 0.00 | 0.00 | 59 | 1011.7 | |
| 20260901115224 | 72 | 0.0 | 0.0 | 0.00 | 0.00 | 0.00 | 59 | 1011.9 | |
| 20260901113724 | 73 | 0.0 | 0.0 | 0.00 | 0.00 | 0.00 | 57 | 1011.8 | |
| 20260901112224 | 73 | 0.0 | 0.0 | 0.00 | 0.00 | 0.00 | 58 | 1012.4 | |
| 20260901110724 | 71 | 0.0 | 0.0 | 0.00 | 0.00 | 0.00 | 61 | 1013.1 | |
| 20260901105225 | 70 | 0.0 | 0.0 | 0.00 | 0.00 | 0.00 | 63 | 1012.4 | |
| 20260901103724 | 70 | 0.0 | 0.0 | 0.00 | 0.00 | 0.00 | 64 | 1013.1 | |
| 20260901102224 | 69 | 0.0 | 0.0 | 0.00 | 0.00 | 0.00 | 65 | 1012.3 | |
| 20260901100724 | 71 | 0.0 | 0.0 | 0.00 | 0.00 | 0.00 | 67 | 1012.9 | |
| 20260901095224 | 68 | 0.0 | 0.0 | 0.00 | 0.00 | 0.00 | 69 | 1012.0 | |
| 20260901093724 | 67 | 0.0 | 0.0 | 0.00 | 0.00 | 0.00 | 72 | 1011.6 | |
| 20260901092224 | 67 | 0.0 | 0.0 | 0.00 | 0.00 | 0.00 | 74 | 1012.3 | |
| 20260901090724 | 66 | 0.0 | 0.0 | 0.00 | 0.00 | 0.00 | 76 | 1011.7 | |
| 20260901085224 | 65 | 0.0 | 0.0 | 0.00 | 0.00 | 0.00 | 79 | 1011.5 | |
| 20260901083724 | 64 | 0.0 | 0.0 | 0.00 | 0.00 | 0.00 | 80 | 1011.6 | |
| 20260901082224 | 64 | 0.0 | 0.0 | 0.00 | 0.00 | 0.00 | 81 | 1011.7 | |
| 20260901080724 | 64 | 0.0 | 0.0 | 0.00 | 0.00 | 0.00 | 82 | 1011.2 | |
| 20260901075224 | 63 | 0.0 | 0.0 | 0.00 | 0.00 | 0.00 | 83 | 1011.1 | |
| 20260901073724 | 63 | 0.0 | 0.0 | 0.00 | 0.00 | 0.00 | 84 | 1010.9 | |
| 20260901072224 | 62 | 0.0 | 0.0 | 0.00 | 0.00 | 0.00 | 85 | 1011.1 | |
| 20260901070724 | 62 | 0.0 | 0.0 | 0.00 | 0.00 | 0.00 | 86 | 1010.8 | |
| 20260901065224 | 62 | 0.0 | 0.0 | 0.00 | 0.00 | 0.00 | 86 | 1010.1 | |
| 20260901063724 | 61 | 0.0 | 0.0 | 0.00 | 0.00 | 0.00 | 86 | 1010.3 | |
| 20260901062225 | 61 | 0.0 | 0.0 | 0.00 | 0.00 | 0.00 | 87 | 1010.3 | |
| 20260901060724 | 61 | 0.0 | 0.0 | 0.00 | 0.00 | 0.00 | 87 | 1010.6 | |
| 20260901055224 | 61 | 0.0 | 0.0 | 0.00 | 0.00 | 0.00 | 87 | 1010.6 | |
| 20260901053724 | 61 | 0.0 | 0.0 | 0.00 | 0.00 | 0.00 | 88 | 1010.0 | |
| 20260901052224 | 60 | 0.0 | 0.0 | 0.00 | 0.00 | 0.00 | 88 | 1010.2 | |
| 20260901050724 | 60 | 0.0 | 0.0 | 0.00 | 0.00 | 0.00 | 89 | 1010.0 | |
| 20260901045224 | 60 | 0.0 | 0.0 | 0.00 | 0.00 | 0.00 | 89 | 1009.8 | |
| 20260901043724 | 59 | 0.0 | 0.0 | 0.00 | 0.00 | 0.00 | 89 | 1009.4 | |
| 20260901042224 | 59 | 0.0 | 0.0 | 0.00 | 0.00 | 0.00 | 89 | 1009.1 | |
| 20260901040724 | 59 | 0.0 | 0.0 | 0.00 | 0.00 | 0.00 | 89 | 1009.1 | |
| 20260901035224 | 59 | 0.0 | 0.0 | 0.00 | 0.00 | 0.00 | 88 | 1007.6 | |
| 20260901033724 | 59 | 0.0 | 0.0 | 0.00 | 0.00 | 0.00 | 88 | 1008.6 | |
| 20260901032224 | 59 | 0.0 | 0.0 | 0.00 | 0.00 | 0.00 | 88 | 1008.8 | |
| 20260901030724 | 59 | 0.0 | 0.0 | 0.00 | 0.00 | 0.00 | 88 | 1008.8 | |
| 20260901025224 | 59 | 0.0 | 0.0 | 0.00 | 0.00 | 0.00 | 88 | 1008.9 | |
| 20260901023724 | 59 | 0.0 | 0.0 | 0.00 | 0.00 | 0.00 | 88 | 1008.5 | |
| 20260901022224 | 59 | 0.0 | 0.0 | 0.00 | 0.00 | 0.00 | 87 | 1008.0 | |
| 20260901020724 | 59 | 0.0 | 0.0 | 0.00 | 0.00 | 0.00 | 88 | 1008.6 | |
| 20260901015224 | 59 | 0.0 | 0.0 | 0.00 | 0.00 | 0.00 | 88 | 1008.5 | |
| 20260901013724 | 59 | 0.0 | 0.0 | 0.00 | 0.00 | 0.00 | 88 | 1008.3 | |
| 20260901012224 | 59 | 0.0 | 0.0 | 0.00 | 0.00 | 0.00 | 88 | 1009.2 | |
| 20260901010724 | 59 | 0.0 | 0.0 | 0.00 | 0.00 | 0.00 | 87 | 1007.8 | |
| 20260901005224 | 59 | 0.0 | 0.0 | 0.00 | 0.00 | 0.00 | 88 | 1008.9 | |
| 20260901003724 | 59 | 0.0 | 0.0 | 0.00 | 0.00 | 0.00 | 88 | 1007.6 | |
| 20260901002224 | 58 | 0.0 | 0.0 | 0.00 | 0.00 | 0.00 | 88 | 1008.1 | |
| 20260901000724 | 58 | 0.0 | 0.0 | 0.00 | 0.00 | 0.00 | 88 | 1008.2 | |
| 20260831235224 | 58 | 0.0 | 0.0 | 0.00 | 0.00 | 0.00 | 88 | 1008.1 | |
| 20260831233724 | 58 | 0.0 | 0.0 | 0.00 | 0.00 | 0.00 | 88 | 1007.9 | |
| 20260831232224 | 59 | 0.0 | 0.0 | 0.00 | 0.00 | 0.00 | 87 | 1008.3 | |
| 20260831230724 | 60 | 0.0 | 0.0 | 0.00 | 0.00 | 0.00 | 87 | 1008.1 | |
| 20260831225224 | 59 | 0.0 | 0.0 | 0.00 | 0.00 | 0.00 | 87 | 1008.0 | |
| 20260831223724 | 60 | 0.0 | 0.0 | 0.00 | 0.00 | 0.00 | 86 | 1008.0 | |
| 20260831222225 | 60 | 0.0 | 0.0 | 0.00 | 0.00 | 0.00 | 86 | 1007.7 | |
| 20260831220724 | 61 | 0.0 | 0.0 | 0.00 | 0.00 | 0.00 | 86 | 1008.2 | |
| 20260831215224 | 60 | 0.0 | 0.0 | 0.00 | 0.00 | 0.00 | 87 | 1008.0 | |
| 20260831213724 | 60 | 0.0 | 0.0 | 0.00 | 0.00 | 0.00 | 87 | 1007.8 | |
| 20260831212224 | 60 | 0.0 | 0.0 | 0.00 | 0.00 | 0.00 | 87 | 1007.6 | |
| 20260831210724 | 60 | 0.0 | 0.0 | 0.00 | 0.00 | 0.00 | 86 | 1008.1 | |
| 20260831205224 | 61 | 0.0 | 0.0 | 0.00 | 0.00 | 0.00 | 85 | 1007.9 | |
| 20260831203724 | 61 | 0.0 | 0.0 | 0.00 | 0.00 | 0.00 | 84 | 1007.5 | |
| 20260831202224 | 61 | 0.0 | 0.0 | 0.00 | 0.00 | 0.00 | 83 | 1007.5 | |
| 20260831200724 | 62 | 0.0 | 0.0 | 0.00 | 0.00 | 0.00 | 80 | 1006.6 | |
| 20260831195224 | 63 | 0.0 | 0.0 | 0.00 | 0.00 | 0.00 | 76 | 1006.4 | |
| 20260831193724 | 64 | 0.0 | 0.0 | 0.00 | 0.00 | 0.00 | 76 | 1007.1 | |
| 20260831192224 | 64 | 0.0 | 0.0 | 0.00 | 0.00 | 0.00 | 76 | 1006.8 | |
| 20260831190724 | 64 | 0.0 | 0.0 | 0.00 | 0.00 | 0.00 | 75 | 1006.6 | |
| 20260831185224 | 65 | 0.0 | 0.0 | 0.00 | 0.00 | 0.00 | 73 | 1006.5 | |
| 20260831183724 | 65 | 0.0 | 0.0 | 0.00 | 0.00 | 0.00 | 71 | 1005.6 | |
| 20260831182224 | 67 | 0.0 | 0.0 | 0.00 | 0.00 | 0.00 | 67 | 1006.0 | |
| 20260831180724 | 69 | 0.0 | 0.0 | 0.00 | 0.00 | 0.00 | 61 | 1006.5 | |
| 20260831175224 | 70 | 0.0 | 0.0 | 0.00 | 0.00 | 0.00 | 62 | 1005.7 | |
| 20260831173724 | 71 | 0.0 | 0.0 | 0.00 | 0.00 | 0.00 | 62 | 1005.7 | |
| 20260831172224 | 72 | 0.0 | 0.0 | 0.00 | 0.00 | 0.00 | 57 | 1005.3 | |
| 20260831170724 | 75 | 0.0 | 0.0 | 0.00 | 0.00 | 0.00 | 49 | 1004.9 | |
| 20260831165224 | 75 | 0.0 | 0.0 | 0.00 | 0.00 | 0.00 | 50 | 1004.7 | |
| 20260831163724 | 76 | 0.0 | 0.0 | 0.00 | 0.00 | 0.00 | 49 | 1004.2 | |
| 20260831162224 | 76 | 0.0 | 0.0 | 0.00 | 0.00 | 0.00 | 50 | 1004.0 | |
| 20260831160724 | 76 | 0.0 | 0.0 | 0.00 | 0.00 | 0.00 | 50 | 1005.6 | |
| 20260831155224 | 76 | 0.0 | 0.0 | 0.00 | 0.00 | 0.00 | 51 | 1004.5 | |
| 20260831153724 | 77 | 0.0 | 0.0 | 0.00 | 0.00 | 0.00 | 52 | 1002.8 | |
| 20260831152224 | 77 | 0.0 | 0.0 | 0.00 | 0.00 | 0.00 | 53 | 1005.4 | |
| 20260831150724 | 77 | 0.0 | 0.0 | 0.00 | 0.00 | 0.00 | 53 | 1004.0 | |
| 20260831145224 | 77 | 0.0 | 0.0 | 0.00 | 0.00 | 0.00 | 52 | 1005.3 |